This is the latest recevied weather packets stored in our database for station/object KD8BMB. If no packets are shown the sender has not sent any weather packets the latest 10 day(s).
| Time | Temp. | Humidity | Pressure | Rain* | Wind** | Luminosity | Snow |
|---|---|---|---|---|---|---|---|
| 1777840796 | 16.67° C | 44% | 1007.8 hPa | 0 mm | - | 209 W/m² | - |
| 1777840494 | 16.67° C | 45% | 1007.6 hPa | 0 mm | - | 202 W/m² | - |
| 1777840191 | 16.67° C | 45% | 1007.9 hPa | 0 mm | - | 176 W/m² | - |
| 1777839889 | 16.67° C | 46% | 1007.7 hPa | 0 mm | - | 210 W/m² | - |
| 1777839587 | 16.67° C | 45% | 1007.8 hPa | 0 mm | - | 166 W/m² | - |
| 1777839284 | 16.67° C | 47% | 1008 hPa | 0 mm | - | 221 W/m² | - |
| 1777838982 | 16.67° C | 45% | 1008.1 hPa | 0 mm | - | 211 W/m² | - |
| 1777838678 | 16.11° C | 47% | 1008 hPa | 0 mm | - | 180 W/m² | - |
| 1777838375 | 16.67° C | 48% | 1008.4 hPa | 0 mm | - | 139 W/m² | - |
| 1777838072 | 16.67° C | 46% | 1008 hPa | 0 mm | - | 174 W/m² | - |
| 1777837768 | 16.67° C | 48% | 1008.5 hPa | 0 mm | - | 176 W/m² | - |
| 1777837465 | 16.67° C | 47% | 1008.5 hPa | 0 mm | - | 222 W/m² | - |
| 1777837161 | 16.11° C | 46% | 1008.4 hPa | 0 mm | - | 252 W/m² | - |
| 1777836856 | 16.11° C | 47% | 1008.6 hPa | 0 mm | - | 196 W/m² | - |
| 1777836552 | 16.11° C | 47% | 1008.5 hPa | 0 mm | - | 239 W/m² | - |
| 1777836249 | 16.67° C | 47% | 1008.7 hPa | 0 mm | - | 202 W/m² | - |
| 1777835944 | 17.78° C | 46% | 1008.8 hPa | 0 mm | - | 592 W/m² | - |
| 1777835642 | 17.22° C | 47% | 1008.8 hPa | 0 mm | - | 694 W/m² | - |
| 1777835338 | 16.67° C | 48% | 1008.6 hPa | 0 mm | - | 430 W/m² | - |
| 1777835036 | 16.67° C | 49% | 1009 hPa | 0 mm | - | 283 W/m² | - |
| 1777834732 | 16.11° C | 50% | 1009 hPa | 0 mm | - | 387 W/m² | - |
| 1777834429 | 16.11° C | 50% | 1009.1 hPa | 0 mm | - | 281 W/m² | - |
| 1777834128 | 15.56° C | 51% | 1009.1 hPa | 0 mm | - | 591 W/m² | - |
| 1777833825 | 16.11° C | 50% | 1009.2 hPa | 0 mm | - | 244 W/m² | - |
| 1777833520 | 16.11° C | 50% | 1009.3 hPa | 0 mm | - | 241 W/m² | - |
* Rain latest hour (hover to see other rain measurements)
** Current wind speed in m/s (hover to see current wind gust speed)